Weather History for Lincoln, NE

Change the Weather History Date:

Sunday, April 20, 2014

  Actual Average Record
Temperature  
Mean Temperature 70 °F 53 °F  
Max Temperature 83 °F 66 °F 95 °F (1902)
Min Temperature 57 °F 41 °F 20 °F (2013)
Degree Days  
Heating Degree Days 0 12  
Month to date heating degree days 302 311  
Since 1 July heating degree days 6276 5787  
Cooling Degree Days 5 1  
Month to date cooling degree days 13 3  
Year to date cooling degree days 13 4  
Growing Degree Days 22 (Base 50)    
Moisture  
Dew Point 53 °F    
Average Humidity 62    
Maximum Humidity 90    
Minimum Humidity 34    
Precipitation  
Precipitation 0.59 in 0.10 in 1.93 in (1912)
Month to date precipitation 2.07 1.60  
Year to date precipitation 3.06 4.94  
Snow  
Snow 0.00 in 0.10 in - ()
Month to date snowfall 0.5 1.2  
Since 1 July snowfall 18.2 25.7  
Snow Depth 0.00 in    
Sea Level Pressure  
Sea Level Pressure 29.95 in    
Wind  
Wind Speed 12 mph (South)    
Max Wind Speed 28 mph    
Max Gust Speed 32 mph    
Visibility 8 miles    
Events Rain , Thunderstorm    
T = Trace of Precipitation, MM = Missing Value Source: NWS Daily Summary

Daily Weather History Graph

Daily Weather History Graph

Search for Another Location

Airport:

Trip Planner

Search our weather history database for the weather conditions in past years. The results will help you decide how hot, cold, wet, or windy it might be!

Date:

Astronomy

Apr. 20, 2014 Rise Set
Actual Time 6:40 AM CDT 8:11 PM CDT
Civil Twilight 6:11 AM CDT 8:40 PM CDT
Nautical Twilight 5:37 AM CDT 9:15 PM CDT
Astronomical Twilight 5:00 AM CDT 9:52 PM CDT
Moon 12:53 AM CDT (4/20) 11:01 AM CDT (4/20)
Length of Visible Light 14h 29m
Length of Day
13h 31m
Waning Gibbous, 68% of the Moon is Illuminated
Apr 20
Waning Gibbous
Apr 22
Last Quarter
Apr 29
New
May 6
First Quarter
May 14
Full

Hourly Weather History & Observations

Time (CDT) Temp. Dew Point Humidity Pressure Visibility Wind Dir Wind Speed Gust Speed Precip Events Conditions
12:54 AM 66.0 °F 44.1 °F 45% 29.95 in 10.0 mi South 16.1 mph - N/A   Scattered Clouds
1:54 AM 66.0 °F 45.0 °F 47% 29.96 in 10.0 mi South 16.1 mph - N/A   Scattered Clouds
2:54 AM 66.0 °F 45.0 °F 47% 29.94 in 10.0 mi South 19.6 mph 27.6 mph N/A   Clear
3:54 AM 64.0 °F 46.0 °F 52% 29.94 in 10.0 mi South 16.1 mph 21.9 mph N/A   Clear
4:54 AM 64.0 °F 46.9 °F 54% 29.94 in 10.0 mi South 16.1 mph - N/A   Clear
5:54 AM 63.0 °F 46.9 °F 56% 29.94 in 10.0 mi South 13.8 mph - N/A   Clear
6:54 AM 62.1 °F 48.0 °F 60% 29.94 in 10.0 mi South 11.5 mph - N/A   Clear
7:54 AM 64.0 °F 48.9 °F 58% 29.96 in 10.0 mi SSW 11.5 mph - N/A   Clear
8:54 AM 66.9 °F 48.9 °F 52% 29.96 in 10.0 mi SW 15.0 mph - N/A   Clear
9:54 AM 70.0 °F 50.0 °F 49% 29.97 in 10.0 mi SW 15.0 mph - N/A   Clear
10:54 AM 73.9 °F 51.1 °F 45% 29.97 in 10.0 mi WSW 12.7 mph - N/A   Clear
11:54 AM 79.0 °F 50.0 °F 36% 29.96 in 10.0 mi WSW 15.0 mph - N/A   Clear
12:54 PM 81.0 °F 51.1 °F 35% 29.94 in 10.0 mi SW 16.1 mph 20.7 mph N/A   Clear
1:54 PM 82.9 °F 52.0 °F 34% 29.93 in 10.0 mi SW 17.3 mph 23.0 mph N/A   Clear
2:54 PM 81.0 °F 52.0 °F 36% 29.92 in 10.0 mi SW 11.5 mph - N/A   Clear
3:34 PM 80.1 °F 52.0 °F 38% 29.94 in 10.0 mi WSW 10.4 mph - N/A Thunderstorm Partly Cloudy
3:52 PM 80.6 °F 51.8 °F 37% 29.95 in 10.0 mi SW 19.6 mph 31.1 mph N/A Thunderstorm Thunderstorm
3:54 PM 78.1 °F 52.0 °F 40% 29.92 in 10.0 mi SW 28.8 mph - N/A Thunderstorm Thunderstorm
4:39 PM 71.1 °F 59.0 °F 66% 29.93 in 10.0 mi ENE 5.8 mph - 0.02 in Rain , Thunderstorm Light Rain
4:54 PM 69.1 °F 57.0 °F 65% 29.93 in 10.0 mi SSE 10.4 mph - 0.02 in Thunderstorm Mostly Cloudy
5:07 PM 66.0 °F 57.9 °F 75% 29.99 in 2.0 mi SW 26.5 mph 32.2 mph 0.00 in Rain , Thunderstorm Thunderstorms and Rain
5:09 PM 64.9 °F 57.9 °F 78% 29.99 in 1.2 mi SSW 19.6 mph 32.2 mph 0.04 in Rain , Thunderstorm Heavy Thunderstorms and Rain
5:18 PM 64.0 °F 57.9 °F 80% 29.98 in 0.8 mi South 10.4 mph - 0.37 in Rain , Thunderstorm Heavy Thunderstorms and Rain
5:25 PM 64.4 °F 57.2 °F 77% 29.98 in 1.8 mi South 9.2 mph - N/A Rain , Thunderstorm Heavy Thunderstorms and Rain
5:34 PM 64.9 °F 57.9 °F 78% 29.97 in 2.5 mi SE 5.8 mph - 0.51 in Rain , Thunderstorm Thunderstorms and Rain
5:41 PM 64.9 °F 57.0 °F 75% 29.97 in 5.0 mi SSE 4.6 mph - 0.51 in Rain , Thunderstorm Light Thunderstorms and Rain
5:54 PM 64.9 °F 57.9 °F 78% 29.95 in 5.0 mi Calm Calm - 0.52 in Rain , Thunderstorm Rain
6:05 PM 64.4 °F 59.0 °F 83% 29.96 in 5.0 mi NNE 5.8 mph - N/A Rain Light Rain
6:54 PM 66.0 °F 59.0 °F 78% 29.92 in 10.0 mi NE 4.6 mph - 0.05 in   Mostly Cloudy
7:54 PM 63.0 °F 59.0 °F 87% 29.93 in 10.0 mi SSE 4.6 mph - N/A   Overcast
8:54 PM 64.0 °F 59.0 °F 84% 29.94 in 10.0 mi SE 8.1 mph - N/A   Mostly Cloudy
9:54 PM 64.0 °F 57.9 °F 80% 29.95 in 10.0 mi South 5.8 mph - N/A   Overcast
10:54 PM 61.0 °F 55.9 °F 83% 29.95 in 10.0 mi SE 4.6 mph - N/A   Scattered Clouds
11:54 PM 59.0 °F 54.0 °F 83% 29.94 in 10.0 mi South 5.8 mph - N/A   Partly Cloudy